Location: Strawberry
(45.6646°N, 111.9596°W)
Time: 21:58:45
(UTC+00:00)

Courier 1B Rocket - Pass Details

Date: 10 October 2022
Orbit: 920 x 1202 km, 28.3° (Epoch: 03 December)

Event Time Altitude Azimuth Distance (km) Brightness Sun altitude
Rises 00:04:50 0° 226° (SW) 3,983 9.5 7.3°
Reaches altitude 10° 00:08:51 10° 207° (SSW) 2,971 8.3 6.7°
Maximum altitude 00:13:06 16° 171° (S) 2,460 7.3 5.9°
Drops below altitude 10° 00:17:12 10° 135° (SE) 2,848 7.2 5.2°
Sets 00:20:56 0° 115° (ESE) 3,743 7.6 4.6°
